www.pogodaiklimat.ru

Погода и климат >> Архив погоды >> Россия >> Краснодарский край >> Горный


ПОГОДА в Горном

  • Прогноз погоды в Горном
  • Монитор погоды в Горном

АРХИВ ПОГОДЫ в Горном

Время (UTC), дата Ветер
(напр.,м/с)
 
Видим.   Явления Облачность Т
(С)
Тd
(С)
f
(%)
Тe
(С)
Тes
(С)
Комфортность P
(гПа)
Po
(гПа)
Тmin
(С)
Tmax
(С)
R
(мм)
R24
(мм)
S
(см)
06 13.02 ЮЗ 2 50 км 10/0
[Ac lent Ci]
+10.5 -7.1 28 +10 +11 1019.6 980.9
09 13.02 Ю 2 50 км 10/0
[Ac cast Ci]
+15.1 -6.9 21 +15 +19 1019.2 981.1
12 13.02 ЮЗ 2
{10}
50 км 10/1 600 м
[Sc Cs]
-1.5 -9.4 55 -5 -2 1019.9 981.5
15 13.02 СВ 2 50 км 10/1 600 м
[Sc Ac As Cs]
+9.2 -0.5 51 +8 +8 1021.6 982.7 +16.4
18 13.02 С 3 50 км 10/3 600 м
[Sc Cs]
+5.9 +2.0 76 +3 +3 1022.7 983.3
21 13.02 СВ 2 20 км 10/10 600 м
[Sc]
+3.8 +1.8 87 +1 +1 1024.2 984.5
00 14.02 С 2
{19}
10 км слаб. ливневой дождь 10/10 600 м
[Cb cap]
+2.0 -2.2 74 -1 -1 1024.5 984.5
03 14.02 СВ 2 20 км {ливн. осадки} 10/10 600 м
[Sc diur, vesp]
+1.9 +0.6 91 -2 -2 1024.0 984.0 +1.7 0.0
06 14.02 СВ 3 4000 м дымка {ливн. осадки} 10/10 300 м
[St]
+1.5 -1.9 78 -3 -3 1024.5 984.4 +1.4
09 14.02 СВ 3 4000 м дымка 10/10 300 м
[St]
+1.7 -0.5 85 -3 -3 1024.0 983.8
12 14.02 СВ 4 4000 м дымка 10/10 300 м
[St]
+1.8 -0.1 87 -3 -3 1022.0 981.9
15 14.02 СВ 5 4000 м слаб. морось 10/10 300 м
[St]
+1.6 +0.5 92 -4 -4 1020.8 980.8 +2.1 0.0
18 14.02 СВ 4
{10}
4000 м слаб. морось 10/10 300 м
[St]
+1.4 0.0 90 -4 -4 1020.7 980.7
21 14.02 СВ 4 4000 м слаб. морось 10/10 300 м
[St]
+1.3 -0.7 87 -4 -4 1020.2 980.2
00 15.02 С 3 20 км {морось} 10/10 600 м
[Sc]
+1.3 -2.3 77 -3 -3 1020.5 980.5
03 15.02 С 3 20 км 10/10 600 м
[Sc]
+0.8 -3.1 75 -4 -4 1020.8 980.6 +0.8 0.0
06 15.02 СВ 5 20 км 10/10 600 м
[Sc]
+0.4 -3.5 75 -5 -5 1022.2 982.0 +0.4
09 15.02 СВ 5
{11}
20 км 10/10 600 м
[Sc]
+0.6 -3.4 75 -5 -5 1022.4 982.3
12 15.02 СВ 4 20 км 10/10 600 м
[Sc]
+2.9 -3.2 64 -1 -1 1021.0 981.1
15 15.02 СВ 3 20 км 10/10 600 м
[Sc]
+2.8 -3.1 65 -1 -1 1021.2 981.4 +3.6
18 15.02 СВ 3 20 км 10/10 600 м
[Sc]
+2.0 -3.6 66 -2 -2 1021.4 981.5
21 15.02 СВ 3 50 км 8/8 600 м
[Sc]
+1.2 -3.9 69 -3 -3 1021.1 981.1
00 16.02 СВ 1 50 км ясно -1.1 -6.7 66 -3 -3 1021.5 981.1
03 16.02 С 1 20 км местами туман поземный ясно -2.7 -3.3 96 -5 -5 1022.0 981.3 -2.7
06 16.02 СВ 1 500 м переохл. туман [диам. изморози 1 мм] 10/0
[Cc]
-1.5 -1.7 99 -4 -2 1022.9 982.4 -2.9
09 16.02 С 1 50 км {туман} 10/1 600 м
[Sc Cs]
+4.5 -5.4 49 +4 +10 1021.9 982.3
12 16.02 СЗ 1 50 км {туман} 10/4 600 м
[Sc Cs]
+5.4 -6.1 43 +5 +7 1020.7 981.2
15 16.02 СЗ 1 50 км 10/5 600 м
[Sc Ac cast]
+3.3 -6.0 50 +2 +2 1021.9 982.1 +5.5
18 16.02 С 2 50 км 9/4 600 м
[Sc Ac cast]
+0.8 -4.8 66 -2 -2 1023.4 983.2
21 16.02 ЮЗ 2 20 км 10/10 600 м
[Sc]
+2.4 -3.5 65 -0 -0 1022.9 983.0
00 17.02 З 3 20 км 10/10 600 м
[Sc]
+1.9 -2.4 73 -2 -2 1023.2 983.2
03 17.02 ЮЗ 4 20 км слаб. ливневой дождь 10/10 600 м
[Cb cap]
+2.4 -1.1 78 -2 -2 1022.9 982.9 +0.6 0.0
06 17.02 ЮЗ 4
{10}
20 км слаб. ливневой дождь 10/10 600 м
[Cb cap]
+2.6 -0.6 79 -2 -2 1023.4 983.5
09 17.02 ЮЗ 7-13
{13}
50 км {ливн. осадки} 6/6 600 м
[Sc diur, vesp]
+5.1 -0.1 69 -0 +1 1022.6 983.1
12 17.02 ЮЗ 9-16
{16}
50 км {ливн. осадки} 4/4 600 м
[Sc diur, vesp]
+5.8 -1.8 58 0 +1 1021.3 981.9
15 17.02 ЮЗ 7-13
{17}
20 км слаб. ливневой дождь 10/6 600 м
[Cb cap Ac lent Ci]
+4.1 +1.1 81 -2 -2 1020.8 981.2 +6.0 0.4
18 17.02 ЮЗ 9-14
{16}
10 км слаб. ливневой дождь 10/10 600 м
[Cb cap]
+4.1 +2.1 87 -2 -2 1020.2 980.6
21 17.02 ЮЗ 8-14
{16}
10 км слаб. ливневой дождь 10/10 600 м
[Cb cap]
+4.4 +2.4 87 -2 -2 1019.2 979.6
00 18.02 ЮЗ 7-12
{15}
10 км слаб. ливневой дождь 10/10 600 м
[Cb cap]
+4.4 +0.4 75 -1 -1 1017.9 978.5
03 18.02 Ю 8-13
{16}
20 км {ливн. осадки} 10/10 600 м
[Sc diur, vesp]
+4.8 -1.1 66 -1 -1 1016.0 976.7 +3.9 7
06 18.02 Ю 6-12
{15}
10 км слаб. ливневой дождь 10/10 600 м
[Cb cap]
+4.3 -0.4 71 -1 -1 1016.5 977.1
09 18.02 ЮЗ 4
{14}
10 км слаб. ливневой дождь 10/10 300 м
[Cb cap]
+4.8 +2.9 87 +1 +1 1016.3 977.0
12 18.02 ЮЗ 4 20 км в посл. час ливневой дождь 8/8 600 м
[Cb cap]
+4.5 +1.5 81 0 +1 1015.7 976.3
15 18.02 СЗ 2 20 км 9/8 600 м
[Sc diur, vesp Ci]
+4.5 -0.8 68 +2 +2 1016.9 977.4 +5.2 11
18 18.02 С 1 20 км 8/3 600 м
[Sc diur, vesp Ac trans Ci]
+0.8 -2.1 81 -1 -1 1012.0 979.8
21 18.02 СВ 3 50 км 4/4 600 м
[Sc]
-0.7 -2.5 88 -6 -6 1020.6 980.3
00 19.02 СВ 4 50 км 3/3 600 м
[Sc]
-1.7 -3.4 88 -8 -8 1021.5 981.0
03 19.02 СВ 4 50 км ясно -2.7 -4.0 91 -9 -9 1023.0 982.3 -2.7
06 19.02 СВ 4 50 км ясно -1.3 -4.9 76 -7 -5 1024.4 983.8 -3.2
09 19.02 С 3 50 км ясно +1.6 -4.7 63 -2 +4 1025.5 985.2
12 19.02 С 2 50 км ясно +4.2 -5.5 49 +2 +6 1025.0 985.2
15 19.02 штиль 0 50 км 3/3 600 м
[Sc]
+2.6 -5.1 57 +2 +2 1026.0 985.9 +4.6
18 19.02 штиль 0
{17}
50 км 3/1 600 м
[Sc Ac cast]
-0.2 -10.5 46 -1 -1 1026.7 986.2
21 19.02 С 1 50 км 3/0
[Ci fib]
-2.9 -3.6 95 -5 -5 1026.5 985.6
00 20.02 штиль 0 50 км ясно -4.1 -4.3 99 -5 -5 1025.5 984.4
03 20.02 штиль 0
{13}
50 км ясно -5.2 -5.5 98 -6 -6 1024.8 983.6 -5.2

 

Местоположение метеостанции Горный (Краснодарский край, Россия): широта 44.28 долгота 39.27 высота над уровнем моря 323 м.

В архиве по умолчанию представлена погода в Горном за последнюю неделю. Архивные данные за месяц целиком и за предыдущие месяцы, начиная с января 2011 года, Вы можете получить, выбрав интересующий диапазон дат из раскрывающегося списка и нажав кнопку "Ввод!".


*Определитесь, кто Вы:
робот инопланетянин человек

Внимание! Время в таблицах - всемирное. Для получения местного времени необходимо прибавить поправку, которая равна 3 ч.

Смотрите также архив погоды в соседних городах и на ближайших метеорологических станциях:

Погода в Туапсе (Краснодарский край, Россия) (26 км)
Погода в Магри (Краснодарский край, Россия) (30 км)
Погода в Горячем Ключе (Краснодарский край, Россия) (41 км)
Погода в Лазаревском (Краснодарский край, Россия) (43 км)
Погода в Джубге (Краснодарский край, Россия) (44 км)
Погода в Кичмае (Краснодарский край, Россия) (54 км)
Погода в Солох Ауле (Краснодарский край, Россия) (61 км)
Погода в Шунтуке (Адыгея, Россия) (71 км)
Погода в Белореченске (Краснодарский край, Россия) (72 км)
Погода в Майкопе (Адыгея, Россия) (75 км)

Пояснения к столбцам:

Ветер - указаны скорость ветра в м/с - средняя за 10 мин, порывы в срок и между сроками (в фигурных скобках) и направление, откуда дует ветер: С - северный, СВ - северо-восточный, В - восточный, ЮВ - юго-восточный, Ю - южный, ЮЗ - юго-западный, З - западный, СЗ - северо-западный.
Видимость - горизонтальная дальность видимости в метрах или километрах. При видимости от 1 до 10 км при отсутствии осадков обычно наблюдается дымка, при ухудшении видимости до 1 км и менее - туман. В сухую погоду видимость может ухудшаться дымом, пылью или мглою.
Явления - указаны атмосферные явления, наблюдавшиеся в срок или в последний час перед сроком; фигурными скобками обозначены явления, наблюдавшиеся между сроками (за 1-3 часа до срока); квадратными скобками обозначены град или гололедные отложения с указанием их диаметра в мм.
Облачность - указаны через наклонную черту общая и нижняя облачность в баллах и высота нижней границы облаков в метрах; квадратными скобками обозначены формы облаков: Ci - перистые, Cs - перисто-слоистые, Cc - перисто-кучевые, Ac - высококучевые, As - высокослоистые, Sc - слоисто-кучевые, Ns - слоисто-дождевые, Cu - кучевые, Cb - кучево-дождевые. Подробнее классификацию облаков см. в Атласе облаков (PDF).
T - Температура воздуха - температура, измеренная на высоте 2 м над землей.
Td - Температура точки росы - температура, при понижении до которой содержащийся в воздухе водяной пар достигнет насыщения.
f - Относительная влажность воздуха - влажноcть воздуха, измеренная на высоте 2 м над землей.
Te - Эффективная температура - температура, которую ощущает одетый по сезону человек в тени. Характеристика душности погоды. При расчете учитывается влияние влажности воздуха и скорости ветра на теплоощущения человека.
Tes - Эффективная температура на солнце - температура, которую ощущает человек, с поправкой на солнечный нагрев. Характеристика знойности погоды. Зависит от высоты солнца над горизонтом, облачности и скорости ветра. Ночью, в пасмурную погоду, а также при ветре 12 м/с и более поправка равна нулю.
P - Атмосферное давление - приведенное к уровню моря атмосферное давление.
Po - Атмосферное давление - измеренное на уровне метеостанции атмосферное давление.
Tmin - Минимальная температура - минимум температуры воздуха на высоте 2 м над землей.
Tmax - Максимальная температура - максимум температуры воздуха на высоте 2 м над землей.
R - Количество осадков - Количество выпавших осадков за период времени, мм. При наведении курсора мыши на число - период времени, за который выпало указанное количество осадков.
R24 - Количество осадков - Количество выпавших осадков за 24 часа, мм.
S - Снежный покров - Высота снежного покрова, см. При наведении курсора мыши на число - состояние снежного покрова и степень покрытия местности в баллах.